Weather History for KHLN - January, 2013

Change the Weather History Date:

Tuesday, January 1, 2013

  Actual Average Record
Temperature  
Mean Temperature 19 °F 21 °F  
Max Temperature 29 °F 31 °F 59 °F (1939)
Min Temperature 9 °F 11 °F -33 °F (1942)
Degree Days  
Heating Degree Days 46 44  
Month to date heating degree days 46 44  
Since 1 July heating degree days 2967 3265  
Cooling Degree Days 0 0  
Month to date cooling degree days 0 0  
Year to date cooling degree days 0 0  
Moisture  
Dew Point 11 °F    
Average Humidity 67    
Maximum Humidity 83    
Minimum Humidity 50    
Precipitation  
Precipitation 0.00 in 0.01 in 0.36 in (1910)
Month to date precipitation 0.00 0.01  
Year to date precipitation 0.00 0.01  
Snow  
Snow 0.00 in 0.20 in 3.00 in (1887)
Month to date snowfall 0.0 0.2  
Since 1 July snowfall 24.1 16.3  
Snow Depth 4.00 in    
Sea Level Pressure  
Sea Level Pressure 30.44 in    
Wind  
Wind Speed 5 mph (West)    
Max Wind Speed 17 mph    
Max Gust Speed 21 mph    
Visibility 10 miles    
Events      
T = Trace of Precipitation, MM = Missing Value Source: NWS Daily Summary

Daily Weather History Graph

Daily Weather History Graph

Search for Another Location

Airport or City:

Trip Planner

Search our weather history database for the weather conditions in past years. The results will help you decide how hot, cold, wet, or windy it might be!

Date:

Astronomy

Jan. 01, 2013 Rise Set
Actual Time 8:12 AM MST 4:51 PM MST
Civil Twilight 7:37 AM MST 5:26 PM MST
Nautical Twilight 6:59 AM MST 6:04 PM MST
Astronomical Twilight 6:22 AM MST 6:41 PM MST
Moon 9:44 PM MST (1/1) 10:09 AM MST (1/1)
Length of Visible Light 9h 49m
Length of Day
8h 39m
Waning Gibbous, 83% of the Moon is Illuminated
Jan 1
Waning Gibbous
Jan 4
Last Quarter
Jan 11
New
Jan 18
First Quarter
Jan 26
Full

Hourly Weather History & Observations

Time (MST) Temp. Windchill Dew Point Humidity Pressure Visibility Wind Dir Wind Speed Gust Speed Precip Events Conditions
12:53 AM 21.2 °F - 14.0 °F 74% 30.17 in 10.0 mi Calm Calm - N/A   Overcast
1:53 AM 21.0 °F - 14.0 °F 74% 30.39 in 10.0 mi Calm Calm - N/A   Overcast
2:53 AM 19.0 °F 13.9 °F 14.0 °F 81% 30.40 in 10.0 mi NE 3.5 mph - N/A   Overcast
3:53 AM 19.4 °F 11.5 °F 12.2 °F 74% 30.20 in 10.0 mi WNW 5.8 mph - N/A   Overcast
4:53 AM 18.0 °F 11.1 °F 12.0 °F 78% 30.40 in 10.0 mi West 4.6 mph - N/A   Clear
5:53 AM 17.1 °F 10.0 °F 10.0 °F 74% 30.39 in 10.0 mi SSE 4.6 mph - N/A   Clear
6:53 AM 14.0 °F - 8.1 °F 77% 30.42 in 10.0 mi Calm Calm - N/A   Clear
7:53 AM 16.0 °F - 9.0 °F 74% 30.41 in 10.0 mi Calm Calm - N/A   Clear
8:53 AM 10.9 °F - 7.0 °F 84% 30.46 in 10.0 mi Calm Calm - N/A   Overcast
9:53 AM 17.6 °F - 10.4 °F 73% 30.22 in 10.0 mi Calm Calm - N/A   Clear
10:53 AM 16.0 °F 10.4 °F 9.0 °F 74% 30.49 in 10.0 mi South 3.5 mph - 0.20 in   Partly Cloudy
11:53 AM 24.1 °F 18.2 °F 12.9 °F 62% 30.47 in 10.0 mi East 4.6 mph - N/A   Overcast
12:53 PM 28.4 °F 21.2 °F 14.0 °F 55% 30.25 in 10.0 mi Variable 6.9 mph - N/A   Overcast
1:53 PM 28.9 °F 21.1 °F 14.0 °F 54% 30.43 in 10.0 mi West 8.1 mph - N/A   Overcast
2:53 PM 28.0 °F 19.3 °F 12.9 °F 53% 30.44 in 10.0 mi West 9.2 mph - N/A   Mostly Cloudy
3:53 PM 27.0 °F 15.6 °F 12.0 °F 53% 30.46 in 10.0 mi West 13.8 mph - N/A   Clear
4:53 PM 24.1 °F 13.1 °F 12.0 °F 60% 30.50 in 10.0 mi West 11.5 mph - N/A   Clear
5:53 PM 21.9 °F 11.7 °F 10.9 °F 63% 30.52 in 10.0 mi West 9.2 mph - N/A   Clear
6:53 PM 23.0 °F 13.9 °F 10.9 °F 60% 30.53 in 10.0 mi WNW 8.1 mph - N/A   Clear
7:53 PM 19.0 °F 11.1 °F 9.0 °F 65% 30.55 in 10.0 mi WNW 5.8 mph - N/A   Clear
8:53 PM 21.9 °F 17.2 °F 10.0 °F 60% 30.56 in 10.0 mi WSW 3.5 mph - N/A   Clear
9:53 PM 16.0 °F - 7.0 °F 68% 30.58 in 10.0 mi Calm Calm - N/A   Clear
10:53 PM 15.1 °F 7.7 °F 7.0 °F 70% 30.58 in 10.0 mi SE 4.6 mph - N/A   Clear
11:53 PM 14.0 °F - 6.1 °F 71% 30.57 in 10.0 mi Calm Calm - N/A   Clear